CW7769 Weather Reports


time (UTC)temp
C
wind
direction
speed
KPH
gust
KPH
rain 1hr
cm
rain 24hr
cm
rain mn
cm
humidity
%
barometer
mb
20260831233802 16 262 0.0 0.0 0.00 0.58 0.00 67 1020.5
20260831232807 16 262 0.0 0.0 0.00 0.61 0.00 67 1020.4
20260831231816 16 261 0.0 3.2 0.00 0.61 0.00 67 1020.3
20260831230742 16 242 1.6 9.7 0.00 0.61 0.00 67 1020.3
20260831225801 16 277 1.6 9.7 0.00 0.61 0.00 67 1020.2
20260831224747 16 275 1.6 4.8 0.00 0.61 0.00 67 1020.2
20260831223738 16 282 1.6 6.4 0.00 0.61 0.00 67 1020.2
20260831222740 16 274 1.6 8.0 0.00 0.61 0.00 67 1020.1
20260831221759 16 265 1.6 8.0 0.00 0.61 0.00 68 1020.1
20260831220811 16 269 0.0 9.7 0.00 0.61 0.00 68 1020.2
20260831215829 16 240 1.6 9.7 0.00 0.61 0.61 68 1020.0
20260831212541 17 298 0.0 4.8 0.00 0.61 0.61 69 1019.8
20260831211552 17 191 0.0 3.2 0.00 0.61 0.61 68 1019.7
20260831205418 17 193 0.0 4.8 0.00 0.61 0.61 68 1019.4
20260831204435 17 219 0.0 4.8 0.00 0.61 0.61 67 1019.3
20260831203414 17 213 0.0 1.6 0.00 0.61 0.61 67 1019.3
20260831202343 17 219 1.6 3.2 0.00 0.61 0.61 66 1019.4
20260831201333 17 223 1.6 6.4 0.08 0.61 0.61 66 1019.2
20260831195300 18 223 4.8 17.7 0.15 0.58 0.58 65 1018.9
20260831194239 18 238 4.8 17.7 0.25 0.56 0.56 64 1018.9
20260831193302 18 273 1.6 8.0 0.00 0.53 0.53 62 1018.8
20260831192318 18 191 1.6 6.4 0.00 0.53 0.53 62 1018.4
20260831191334 18 237 1.6 4.8 0.00 0.53 0.53 61 1018.2
20260831185203 18 191 1.6 9.7 0.00 0.53 0.53 61 1017.9
20260831184218 18 217 1.6 8.0 0.00 0.53 0.53 61 1017.9
20260831183153 19 221 4.8 12.9 0.00 0.53 0.53 61 1017.7
20260831181048 19 209 3.2 14.5 0.00 0.53 0.53 61 1017.5
20260831180056 19 175 3.2 17.7 0.00 0.53 0.53 61 1017.4
20260831175055 20 187 4.8 17.7 0.00 0.53 0.53 60 1017.4
20260831174036 20 244 6.4 16.1 0.00 0.53 0.53 60 1017.3
20260831171827 20 176 6.4 19.3 0.00 0.53 0.53 61 1017.0
20260831165657 20 171 6.4 17.7 0.00 0.53 0.53 61 1017.1
20260831164634 20 211 6.4 17.7 0.00 0.53 0.53 61 1016.9
20260831163648 20 215 6.4 20.9 0.00 0.53 0.53 61 1016.9
20260831162650 20 244 6.4 20.9 0.00 0.53 0.53 61 1016.9
20260831161653 20 254 6.4 20.9 0.00 0.53 0.53 62 1017.0
20260831160650 20 215 6.4 17.7 0.00 0.53 0.53 62 1016.8
20260831155713 20 239 4.8 14.5 0.00 0.53 0.53 63 1016.9
20260831154654 20 218 3.2 9.7 0.00 0.53 0.53 65 1016.7
20260831153638 20 208 1.6 9.7 0.00 0.53 0.53 67 1016.9
20260831152648 20 207 1.6 14.5 0.00 0.53 0.53 68 1016.9
20260831151707 20 211 4.8 14.5 0.00 0.53 0.53 68 1016.8
20260831150714 19 243 4.8 14.5 0.08 0.53 0.53 67 1016.8
20260831145715 20 223 4.8 41.8 0.15 0.53 0.53 62 1016.8
20260831144703 21 213 16.1 41.8 0.46 0.51 0.51 56 1017.0
20260831140202 26 217 9.7 24.1 0.00 0.18 0.18 35 1015.4
20260831135150 26 187 9.7 30.6 0.00 0.18 0.18 37 1015.6
20260831134128 26 201 12.9 30.6 0.00 0.18 0.18 35 1015.7
20260831133120 25 173 11.3 29.0 0.00 0.18 0.18 36 1015.7
20260831130931 26 217 9.7 27.4 0.00 0.18 0.18 34 1015.7
20260831125949 25 201 6.4 27.4 0.00 0.18 0.18 35 1016.0
20260831124916 25 170 6.4 27.4 0.00 0.18 0.18 36 1016.0
20260831123905 25 277 9.7 27.4 0.00 0.18 0.18 35 1016.0
20260831122855 24 220 6.4 33.8 0.00 0.18 0.18 38 1016.1
20260831121827 25 261 8.0 33.8 0.00 0.18 0.18 37 1016.3
20260831120757 25 275 9.7 29.0 0.00 0.18 0.18 37 1016.3
20260831114706 23 201 11.3 37.0 0.00 0.18 0.18 42 1016.4
20260831113730 23 286 12.9 37.0 0.00 0.18 0.18 39 1016.5
20260831112751 23 247 11.3 32.2 0.00 0.18 0.18 41 1016.4
20260831111723 24 163 11.3 32.2 0.00 0.18 0.18 40 1016.4
20260831110717 23 243 6.4 27.4 0.00 0.18 0.18 44 1016.4
20260831105737 23 240 6.4 24.1 0.00 0.18 0.18 47 1016.6
20260831104751 23 227 8.0 24.1 0.00 0.18 0.18 48 1016.5
20260831103751 22 223 8.0 20.9 0.00 0.18 0.18 54 1016.6
20260831102735 21 211 4.8 14.5 0.00 0.18 0.18 61 1016.7
20260831101742 20 232 4.8 33.8 0.00 0.18 0.18 62 1016.8
20260831100728 20 241 9.7 33.8 0.00 0.18 0.18 59 1016.9
20260831095706 21 267 9.7 30.6 0.00 0.15 0.15 52 1016.6
20260831094729 21 211 9.7 19.3 0.00 0.15 0.15 52 1016.5
20260831093732 21 228 11.3 27.4 0.00 0.15 0.15 52 1016.6
20260831092719 21 180 9.7 27.4 0.00 0.15 0.15 53 1016.4
20260831091702 21 195 4.8 16.1 0.00 0.15 0.15 54 1016.5
20260831090722 20 182 4.8 20.9 0.00 0.15 0.15 56 1016.5
20260831083443 20 220 6.4 17.7 0.00 0.15 0.15 57 1016.5
20260831080140 21 225 4.8 16.1 0.00 0.15 0.15 59 1016.3
20260831075144 21 200 3.2 9.7 0.00 0.15 0.15 61 1016.3
20260831074150 20 230 3.2 14.5 0.00 0.15 0.15 62 1016.3
20260831073129 20 267 6.4 14.5 0.00 0.15 0.15 63 1016.2
20260831072057 20 215 1.6 9.7 0.00 0.15 0.15 67 1016.3
20260831065916 18 200 4.8 11.3 0.00 0.15 0.15 75 1016.1
20260831063820 18 201 1.6 6.4 0.00 0.15 0.15 77 1016.2
20260831062754 17 184 1.6 9.7 0.00 0.15 0.15 77 1016.1
20260831061721 17 188 1.6 9.7 0.00 0.15 0.15 77 1016.0
20260831060728 17 252 1.6 6.4 0.00 0.15 0.15 77 1016.1
20260831055710 17 166 1.6 8.0 0.00 0.15 0.15 76 1015.9
20260831054722 17 170 1.6 8.0 0.00 0.15 0.15 76 1016.0
20260831052559 17 191 1.6 9.7 0.00 0.15 0.15 75 1015.6
20260831051557 17 182 1.6 8.0 0.00 0.15 0.15 75 1015.6
20260831050605 17 190 1.6 8.0 0.00 0.15 0.15 75 1015.6
20260831044402 17 183 1.6 6.4 0.00 0.15 0.15 75 1015.4
20260831042223 17 178 1.6 4.8 0.00 0.15 0.15 75 1015.1
20260831041231 17 196 1.6 4.8 0.00 0.15 0.15 75 1015.2
20260831040236 17 176 1.6 4.8 0.00 0.15 0.15 75 1015.1
20260831035211 17 176 3.2 8.0 0.00 0.15 0.15 74 1015.0
20260831034216 17 185 1.6 8.0 0.00 0.15 0.15 74 1015.0
20260831033238 17 182 0.0 3.2 0.00 0.15 0.15 74 1015.1
20260831032244 17 182 0.0 3.2 0.00 0.15 0.15 73 1014.9
20260831024903 17 202 1.6 8.0 0.00 0.15 0.15 73 1014.9
20260831023842 17 203 1.6 4.8 0.00 0.15 0.15 73 1014.7
20260831022807 17 192 1.6 4.8 0.00 0.15 0.15 72 1014.7
20260831021826 17 213 1.6 6.4 0.00 0.15 0.15 72 1014.5
20260831020808 17 202 1.6 6.4 0.00 0.15 0.15 71 1014.5
20260831015831 17 221 1.6 4.8 0.00 0.15 0.15 71 1014.4
20260831014850 17 228 0.0 1.6 0.00 0.15 0.15 71 1014.3
20260831013857 17 276 0.0 0.0 0.00 0.15 0.15 70 1014.1
20260831012908 17 276 0.0 0.0 0.00 0.13 0.13 70 1014.5
20260831011900 17 276 0.0 0.0 0.00 0.13 0.13 70 1014.3
20260831010919 17 276 0.0 0.0 0.00 0.13 0.13 69 1014.3
20260831005929 18 276 0.0 0.0 0.00 0.13 0.13 69 1014.1
20260831004907 18 276 0.0 0.0 0.00 0.13 0.13 68 1014.0
20260831000540 18 276 0.0 0.0 0.08 0.10 0.10 67 1013.9
20260830234432 18 276 0.0 4.8 0.30 0.08 0.08 65 1014.1